Cairo, Egypt

8:04 AM EET on May 28, 2017 (GMT +0200)
Cairo International Airport

Weather History for HECA - May, 2012

Change the Weather History Date:

Monday, May 14, 2012

  Actual Average Record
Temperature  
Mean Temperature 78 °F -  
Max Temperature 86 °F 89 °F 111 °F (2016)
Min Temperature 69 °F 66 °F 62 °F (2001)
Cooling Degree Days 12    
Growing Degree Days 28 (Base 50)    
Moisture  
Dew Point 56 °F    
Average Humidity 48    
Maximum Humidity 73    
Minimum Humidity 22    
Precipitation  
Precipitation 0.00 in 0.00 in - ()
Sea Level Pressure  
Sea Level Pressure 29.88 in    
Wind  
Wind Speed 8 mph ()    
Max Wind Speed 16 mph    
Max Gust Speed -    
Visibility 5.5 miles    
Events Rain    
Averages and records for this station are not official NWS values.
T = Trace of Precipitation, MM = Missing Value Source: Averaged Metar Reports

Daily Weather History Graph

Daily Weather History Graph

Search for Another Location

Airport or City:

Trip Planner

Search our weather history database for the weather conditions in past years. The results will help you decide how hot, cold, wet, or windy it might be!

Date:

Astronomy

May. 14, 2012 Rise Set
Actual Time 5:01 AM EET 6:40 PM EET
Civil Twilight 4:35 AM EET 7:06 PM EET
Nautical Twilight 4:03 AM EET 7:38 PM EET
Astronomical Twilight 3:30 AM EET 8:11 PM EET
Moon 12:59 AM EET (5/14) 1:05 PM EET (5/14)
Length of Visible Light 14h 31m
Length of Day
13h 39m
Waning Crescent, 35% of the Moon is Illuminated
May 14
Waning Crescent
May 21
New
May 28
First Quarter
Jun 4
Full
Jun 11
Last Quarter

Hourly Weather History & Observations

Time (EET) Temp. Heat Index Dew Point Humidity Pressure Visibility Wind Dir Wind Speed Gust Speed Precip Events Conditions
2:00 AM 72 °F - 62 °F 63% 29.84 in 6 mi ENE 10.4 mph - -  
2:30 AM 71.6 °F - 62.6 °F 73% 29.83 in - East 11.5 mph - N/A   Clear
3:00 AM 71.6 °F - 62.6 °F 73% 29.83 in - East 12.7 mph - N/A   Clear
3:30 AM 71.6 °F - 62.6 °F 73% 29.83 in - East 10.4 mph - N/A   Clear
4:00 AM 69.8 °F - 60.8 °F 73% 29.83 in - ENE 10.4 mph - N/A   Clear
7:00 AM 73.4 °F - 57.2 °F 57% 29.89 in 6.2 mi North 2.3 mph - N/A   Partly Cloudy
7:30 AM 73.4 °F - 59.0 °F 61% 29.89 in 6.2 mi North 5.8 mph - N/A   Partly Cloudy
8:00 AM 73 °F - 58 °F 51% 29.89 in 4 mi NNE 5.8 mph - - Rain Light Rain Showers
9:00 AM 73.4 °F - 59.0 °F 61% 29.95 in 3.7 mi North 3.5 mph - N/A Rain Light Rain
9:30 AM 73.4 °F - 60.8 °F 65% 29.92 in 3.7 mi North 8.1 mph - N/A   Mostly Cloudy
10:00 AM 71.6 °F - 59.0 °F 64% 29.92 in 3.7 mi North 9.2 mph - N/A   Mostly Cloudy
10:30 AM 73.4 °F - 62.6 °F 69% 29.92 in 6.2 mi NNE 6.9 mph - N/A   Mostly Cloudy
11:00 AM 75 °F - 58 °F 44% 29.91 in 6 mi NE 6.9 mph - -  
11:00 AM 75.2 °F - 57.2 °F 53% 29.92 in 6.2 mi NE 6.9 mph - N/A   Scattered Clouds
11:30 AM 78.8 °F - 57.2 °F 47% 29.89 in 6.2 mi NE 6.9 mph - N/A   Scattered Clouds
12:00 PM 80.6 °F 80.8 °F 57.2 °F 45% 29.89 in 6.2 mi NE 3.5 mph - N/A   Scattered Clouds
12:30 PM 80.6 °F 80.8 °F 57.2 °F 45% 29.89 in - NE 3.5 mph - N/A   Clear
1:00 PM 84.2 °F - 51.8 °F 33% 29.86 in - NW 5.8 mph - N/A   Clear
1:30 PM 84.2 °F - 51.8 °F 33% 29.86 in - NW 5.8 mph - N/A   Clear
2:00 PM 84 °F - 51 °F 22% 29.86 in 6 mi NNW 5.8 mph - -  
2:00 PM 84.2 °F - 51.8 °F 33% 29.86 in - NNW 5.8 mph - N/A   Clear
2:30 PM 84.2 °F - 51.8 °F 33% 29.86 in - NNW 5.8 mph - N/A   Clear
3:00 PM 86.0 °F - 50.0 °F 29% 29.83 in - West 10.4 mph - N/A   Clear
3:30 PM 86.0 °F - 51.8 °F 31% 29.83 in - West 10.4 mph - N/A   Clear
4:00 PM 86.0 °F - 50.0 °F 29% 29.83 in - NNW 8.1 mph - N/A   Clear
4:30 PM 86.0 °F - 50.0 °F 29% 29.83 in - NNW 8.1 mph - N/A   Clear
5:00 PM 86.0 °F - 51.8 °F 31% 29.86 in - NW 10.4 mph - N/A   Clear
5:30 PM 84.2 °F - 51.8 °F 33% 29.86 in - NW 10.4 mph - N/A   Clear
6:00 PM 84.2 °F - 50.0 °F 30% 29.86 in - NNW 11.5 mph - N/A   Clear
6:30 PM 84.2 °F - 50.0 °F 30% 29.86 in - NNW 11.5 mph - N/A   Clear
7:00 PM 82.4 °F 81.7 °F 55.4 °F 39% 29.89 in - NW 15.0 mph - N/A   Clear
7:30 PM 80.6 °F 81.1 °F 59.0 °F 48% 29.89 in - NNW 13.8 mph - N/A   Clear
8:00 PM 79 °F - 56 °F 34% 29.90 in 6 mi NNW 16.1 mph - -  
8:00 PM 78.8 °F - 55.4 °F 44% 29.92 in - NNW 16.1 mph - N/A   Clear
8:30 PM 77.0 °F - 55.4 °F 47% 29.92 in - NNW 15.0 mph - N/A   Clear
9:00 PM 77.0 °F - 57.2 °F 50% 29.92 in - North 10.4 mph - N/A   Clear
9:30 PM 77.0 °F - 57.2 °F 50% 29.92 in - North 10.4 mph - N/A   Clear
10:00 PM 75.2 °F - 59.0 °F 57% 29.95 in - North 10.4 mph - N/A   Clear
10:30 PM 75.2 °F - 59.0 °F 57% 29.95 in - North 11.5 mph - N/A   Clear
11:00 PM 75.2 °F - 59.0 °F 57% 29.95 in - North 8.1 mph - N/A   Clear
11:30 PM 75.2 °F - 59.0 °F 57% 29.95 in - North 8.1 mph - N/A   Clear